Starlink 1894

operational
NORAD ID: 46744 Int'l Des: 2020-074 Owner: SPXS Country: US Constellation: starlink
LEOCIRCULARSTARLINK_TYPE

About Starlink 1894

Description loading...

Live Position

Loading 3D Globe...

Upcoming Passes

Altitude History

Altitude vs Time

uPlot chart will show altitude changes over time

Two-Line Element Set

1 46744U 20074F 25350.96727143 .00028245 00000-0 56875-3 0 9997
2 46744 53.0531 321.2337 0010955 56.6885 303.5169 15.46331237284379
Epoch: Dec 16, 2025 • Age: 7 hours

Current Status

Altitude 446.9 km
Velocity 7.64 km/s
Sub-Earth Point -45.90°S, 82.65°E
Launch Date Oct 24, 2020
Age 5.1 years
Type internet

Technical Details

Classification Payload
Mass 260.00 kg
Dry Mass 248.00 kg
Total Mass 260.00 kg
Length 0.20 m
Diameter 2.80 m
Span 9.00 m
Shape Box + pan
Manufacturer SPXS
Bus Type Starlink
Phase Status In Orbit
Owner/State SPXS/US

Large Constellations

Loading constellations...